Zacatecas Airport, Mexico

4:03 AM CST on February 25, 2018 (GMT -0600)
Gen Leobardo C Ruiz International

Weather History for MMZC - October, 2012

Change the Weather History Date:

Saturday, October 20, 2012

  Actual Average Record
Temperature  
Mean Temperature 65 °F -  
Max Temperature 82 °F 72 °F 82 °F (2004)
Min Temperature 48 °F 43 °F 32 °F (2005)
Growing Degree Days 15 (Base 50)    
Moisture  
Dew Point 45 °F    
Average Humidity 49    
Maximum Humidity 82    
Minimum Humidity 21    
Precipitation  
Precipitation 0.00 in - - ()
Sea Level Pressure  
Sea Level Pressure 30.19 in    
Wind  
Wind Speed 4 mph ()    
Max Wind Speed 14 mph    
Max Gust Speed 21 mph    
Visibility 10.0 miles    
Events      
Averages and records for this station are not official NWS values.
T = Trace of Precipitation, MM = Missing Value Source: Averaged Metar Reports

Daily Weather History Graph

Daily Weather History Graph

Search for Another Location

Airport or City:

Trip Planner

Search our weather history database for the weather conditions in past years. The results will help you decide how hot, cold, wet, or windy it might be!

Date:

Astronomy

Oct. 20, 2012 Rise Set
Actual Time 7:49 AM CDT 7:20 PM CDT
Civil Twilight 7:27 AM CDT 7:43 PM CDT
Nautical Twilight 7:00 AM CDT 8:09 PM CDT
Astronomical Twilight 6:34 AM CDT 8:35 PM CDT
Moon 1:08 PM CDT (10/20) No Moon Set
Length of Visible Light 12h 16m
Length of Day
11h 30m
Waxing Crescent, 34% of the Moon is Illuminated
Oct 20
Waxing Crescent
Oct 21
First Quarter
Oct 29
Full
Nov 6
Last Quarter
Nov 13
New

Hourly Weather History & Observations

Time (CDT) Temp. Dew Point Humidity Pressure Visibility Wind Dir Wind Speed Gust Speed Precip Events Conditions
1:46 AM 57.2 °F 46.4 °F 67% 30.22 in 10.0 mi Calm Calm - N/A   Partly Cloudy
3:00 AM 55.4 °F 44.6 °F 67% 30.21 in 10.0 mi Calm Calm - N/A   Partly Cloudy
5:44 AM 48.2 °F 41.0 °F 76% 30.20 in 10.0 mi Calm Calm - N/A   Partly Cloudy
6:47 AM 50.0 °F 44.6 °F 82% 30.21 in 10.0 mi South 5.8 mph - N/A   Partly Cloudy
7:40 AM 50.0 °F 42.8 °F 76% 30.22 in 10.0 mi Calm Calm - N/A   Clear
8:41 AM 53.6 °F 46.4 °F 77% 30.25 in 10.0 mi SSW 5.8 mph - N/A   Clear
9:43 AM 64.4 °F 51.8 °F 64% 30.26 in 10.0 mi SSW 6.9 mph - N/A   Clear
10:41 AM 69.8 °F 51.8 °F 53% 30.26 in 10.0 mi SSW 13.8 mph - N/A   Clear
11:58 AM 73.4 °F 51.8 °F 47% 30.25 in 10.0 mi West 9.2 mph - N/A   Clear
12:41 PM 75.2 °F 51.8 °F 44% 30.23 in 10.0 mi Calm Calm - N/A   Clear
1:42 PM 78.8 °F 48.2 °F 34% 30.19 in 10.0 mi West 6.9 mph - N/A   Mostly Cloudy
2:46 PM 82.4 °F 44.6 °F 26% 30.15 in 10.0 mi NNE 9.2 mph 20.7 mph N/A   Mostly Cloudy
3:45 PM 82.4 °F 41.0 °F 23% 30.12 in 10.0 mi North 13.8 mph - N/A   Mostly Cloudy
4:43 PM 82.4 °F 39.2 °F 21% 30.12 in 10.0 mi North 10.4 mph - N/A   Mostly Cloudy
5:40 PM 80.6 °F 37.4 °F 21% 30.12 in 10.0 mi North 13.8 mph - N/A   Mostly Cloudy
6:42 PM 77.0 °F 39.2 °F 26% 30.13 in 10.0 mi NE 10.4 mph - N/A   Scattered Clouds
7:42 PM 71.6 °F 37.4 °F 29% 30.15 in 10.0 mi NE 8.1 mph - N/A   Scattered Clouds
8:42 PM 66.2 °F 53.6 °F 64% 30.16 in 10.0 mi ENE 6.9 mph - N/A   Scattered Clouds
9:40 PM 66.2 °F 41.0 °F 40% 30.18 in 10.0 mi ENE 8.1 mph - N/A   Scattered Clouds
10:41 PM 59.0 °F 37.4 °F 45% 30.21 in 10.0 mi Calm Calm - N/A   Scattered Clouds
11:40 PM 62.6 °F 42.8 °F 48% 30.23 in 10.0 mi Calm Calm - N/A   Scattered Clouds